sat.trackr.live / text

‹ back to catalog

KUIPER-00599

NORAD 69283 · 2026-118S

PAYLOAD ACTIVE UNKNOWN

§ Identity

Operator
Country
US
Launch date
2026-05-29
Launch site
AFETR
Launch vehicle
Mass (kg)
RCS (m²)

External: N2YO · Heavens-Above · Gunter

§ Orbital elements

Epoch: 2026-09-19T19:17:45.663936Z

Period
97.30 min
Inclination
51.9038°
Eccentricity
0.0000121
Mean motion
14.79929088 rev/d
Perigee alt
629.5 km
Apogee alt
629.6 km
Semi-major
7,007.7 km
B*
3.0052e-5
RAAN
337.1874°
Arg perigee
149.8599°
Mean anomaly
210.2370°
Rev number
1,824

§ Raw data

KUIPER-005991 69283U 26118S   26262.80400074  .00000008  00000+0  30052-4 0  99982 69283  51.9038 337.1874 0000121 149.8599 210.2370 14.79929088 18245

JSON: /api/v1/satellites/69283 · /tle

For live sub-satellite position, see the globe view (requires WebGL).

§ Visibility from observer

Set your observer location to see the next 7 days of passes ≥ 10°. The values pass through the URL so the page stays shareable.

No JS? Fill the form by hand. The geolocation button needs JavaScript.